Flag for Kazakhstan Weather past 2 weeks in Almaty, Kazakhstan

Now
25 °F

Snow. Ice fog.


Feels Like: 16 °F
Forecast: 15 / 27 °F
Wind: 8 mph from Northwest

Location: Almaty Airport

Current Time: Mar 30, 2015 at 12:02:39 AM

Latest Report: Mar 29, 2015 at 11:30 PM


Visibility: 1 mi

Pressure: 30.12 "Hg

Humidity: 86%

Dew point: 21 °F

Location of AlmatyLocation

Historic Weather in Almaty — Graph

°F

Almaty temperature yesterday

Maximum temperature yesterday: 48 °F (at 1:30 AM)
Minimum temperature yesterday: 25 °F (at 11:00 PM)
Average temperature yesterday: 40 °F

Past Weeks' High & Low Weather Summary

 TemperatureHumidityPressure
High75 °F (Mar 23, 3:30 PM)93% (Mar 16, 5:00 AM)30.57 "Hg (Mar 16, 5:00 AM)
Low25 °F (Mar 17, 5:00 AM)14% (Mar 23, 3:30 PM)29.50 "Hg (Mar 24, 7:30 AM)
Average44 °F64%30.17 "Hg
* Reported Mar 14 11:00 PM — Mar 29 11:00 PM, Almaty, Weather by CustomWeather, © 2015

Note: Actual official high and low records may vary slightly from our data, if they occured in-between our weather recording intervals... More about our weather records

Advertising

Almaty weather history for previous 24 hours

 ConditionsComfort  
Time TempWeatherWind HumidityBarometerVisibility
11:00 PM
Sun, Mar 29
25 °FLight snow. Ice fog.13 mph93%30.12 "Hg1 mi
10:30 PM27 °FSnow. Ice fog.13 mph86%30.09 "Hg1 mi
10:00 PM27 °FSnow. Ice fog.8 mph93%30.09 "Hg1 mi
9:30 PM28 °FSnow. Ice fog.10 mph93%30.09 "Hg1 mi
9:00 PM28 °FSnow. Ice fog.6 mph93%30.07 "Hg1 mi
8:30 PM30 °FSnow showers. Ice fog.10 mph93%30.04 "Hg1 mi
8:00 PM30 °FSnow showers. Ice fog.8 mph93%30.04 "Hg1 mi
7:30 PM32 °FSnow flurries. Ice fog.13 mph87%30.01 "Hg1 mi
7:00 PM34 °FSprinkles. Fog.10 mph87%29.98 "Hg1 mi
6:30 PM34 °FSprinkles. Fog.8 mph93%29.98 "Hg3 mi
6:00 PM36 °FRain showers. Fog.10 mph93%29.98 "Hg2 mi
5:30 PM37 °FSprinkles. Fog.6 mph81%29.98 "Hg2 mi
5:00 PM37 °FSprinkles. Mostly cloudy.3 mph87%29.95 "HgN/A
4:30 PM39 °FSprinkles. Overcast.6 mph81%29.95 "HgN/A
4:00 PM39 °FSprinkles. Overcast.13 mph81%29.95 "HgN/A
3:30 PM41 °FSprinkles. Mostly cloudy.15 mph81%29.95 "HgN/A
3:00 PM41 °FSprinkles. Overcast.17 mph81%29.92 "HgN/A
2:30 PM48 °FMostly cloudy.6 mph43%29.89 "HgN/A
2:00 PM48 °FMostly cloudy.3 mph43%29.92 "HgN/A
1:30 PM48 °FMostly cloudy.6 mph40%29.92 "HgN/A
1:00 PM48 °FMostly cloudy.6 mph43%29.92 "HgN/A
12:30 PM48 °FMostly cloudy.6 mph50%29.92 "HgN/A
12:00 PM46 °FMostly cloudy.6 mph50%29.92 "HgN/A
11:30 AM46 °FMostly cloudy.8 mph53%29.95 "HgN/A
11:00 AM45 °FMostly cloudy.6 mph66%29.95 "HgN/A
10:30 AM45 °FMostly cloudy.1 mph66%29.98 "HgN/A
10:00 AM43 °FMostly cloudy.3 mph76%29.98 "HgN/A
9:30 AM43 °FMostly cloudy.No wind76%29.98 "HgN/A
9:00 AM43 °FMostly cloudy.No wind81%30.01 "HgN/A
8:30 AM41 °FMostly cloudy.3 mph81%30.01 "HgN/A
8:00 AM41 °FMostly cloudy.3 mph81%30.01 "HgN/A
7:30 AM41 °FSprinkles. Mostly cloudy.6 mph81%30.01 "HgN/A
7:00 AM41 °FSprinkles. Mostly cloudy.6 mph81%30.01 "HgN/A
6:30 AM41 °FMostly cloudy.8 mph81%30.01 "HgN/A
6:00 AM41 °FSprinkles. Mostly cloudy.6 mph81%30.01 "HgN/A
5:30 AM39 °FSprinkles. Mostly cloudy.8 mph87%29.98 "HgN/A
5:00 AM41 °FMostly cloudy.3 mph81%29.98 "HgN/A
4:30 AM43 °FSprinkles. Mostly cloudy.10 mph81%29.98 "HgN/A
4:00 AM45 °FSprinkles. Mostly cloudy.6 mph81%29.95 "HgN/A
3:30 AM45 °FSprinkles. Mostly cloudy.3 mph81%29.95 "HgN/A
3:00 AM46 °FSprinkles. Mostly cloudy.6 mph71%29.95 "HgN/A
2:30 AM46 °FSprinkles. Mostly cloudy.1 mph71%29.95 "HgN/A
2:00 AM46 °FSprinkles. Mostly cloudy.3 mph66%29.98 "HgN/A
1:30 AM48 °FSprinkles. Mostly cloudy.3 mph58%29.98 "HgN/A
1:00 AM46 °FMostly cloudy.6 mph66%29.98 "HgN/A
12:30 AM46 °FSprinkles. Mostly cloudy.8 mph71%29.98 "HgN/A
12:00 AM46 °FSprinkles. Mostly cloudy.8 mph71%30.01 "HgN/A
Weather by CustomWeather, © 2015

See weather overviewHow to use our weather pages